Location: Gälforsberget
(66.6500°N, 22.4167°E)
Time: 14:31:56
(UTC+00:00)

Cosmos 2151 - Pass Details

Date: 11 April 2026
Orbit: 557 x 574 km, 82.5° (Epoch: 17 May)

Event Time Altitude Azimuth Distance (km) Brightness Sun altitude
Rises 21:59:40 0° 338° (NNW) 2,801 8.1 -14.5°
Reaches altitude 10° 22:02:02 10° 348° (NNW) 1,900 7.0 -14.6°
Maximum altitude 22:05:51 32° 54° (NE) 998 4.4 -14.6°
Drops below altitude 10° 22:09:38 10° 118° (ESE) 1,893 5.2 -14.7°
Enters shadow 22:09:45 - 119° (ESE) 1,933 5.3 -14.7°
